Location: Campo Claro
(10.4907°N, 66.8285°W)
Time: 06:36:35
(UTC+00:00)

BREEZE-M DEB (TANK) - Pass Details

Date: 03 July 2022
Orbit: 341 x 14877 km, 49.6° (Epoch: 11 August)

Event Time Altitude Azimuth Distance (km) Brightness Sun altitude
Rises 20:19:53 0° 316° (NW) 14,317 11.3 34.3°
Reaches altitude 10° 20:33:31 10° 322° (NW) 15,175 11.6 31.2°
Maximum altitude 22:58:30 86° 62° (ENE) 9,635 9.6 -2.0°
Drops below altitude 10° 23:33:08 10° 144° (SE) 6,714 8.3 -9.7°
Enters shadow 23:35:25 - 144° (SE) 6,911 8.3 -10.2°
